Location: Bamobli
(6.6379°N, 10.9396°W)
Time: 23:52:09
(UTC+00:00)

Daily predictions for brighter satellites

Satellite Brightness Start Highest point End
(mag) Time Altitude Azimuth Time Altitude Azimuth Time Altitude Azimuth
SKYMED 2 4.1 18:39:18 10° N 18:43:34 63° WNW 18:47:51 10° SSW
Meteor 1-27 Rocket 4.0 18:46:05 10° SSE 18:51:24 44° E 18:56:37 10° NNE
Sich 1 3.3 18:47:50 10° N 18:52:08 76° W 18:56:31 10° S
DMSP B5D2-2 4.4 18:47:49 10° NNE 18:52:46 45° ESE 18:57:46 10° S
SWIFT 4.1 18:50:07 10° NNW 18:52:51 17° N 18:55:36 10° NE
CZ-2D R/B 3.2 18:49:46 10° SSE 18:53:36 70° ENE 18:57:24 10° N
Cosmos 1515 Rocket 3.6 18:49:25 10° S 18:53:52 73° E 18:58:17 10° N
Cosmos 2084 4.0 18:49:46 10° N 18:54:06 42° ENE 18:58:31 10° SE
Cosmos 1898 Rocket 3.6 18:49:02 10° NNW 18:54:12 84° WSW 18:59:22 10° S
H-2A R/B 3.2 18:55:02 10° NE 18:58:44 26° E 19:02:25 10° SSE
Aureole 3 Rocket 2.9 18:58:33 10° SSE 19:01:27 37° E 19:04:51 10° NNE
H-2A R/B 2.1 18:56:15 10° SSE 19:01:33 71° ENE 19:06:43 10° N
Centaur AC-69 4.1 19:01:17 10° NW 19:03:45 17° N 19:05:15 12° NE
CZ-4C R/B 3.4 19:00:25 10° N 19:03:46 63° W 19:07:12 10° SSW
CZ-4B R/B 3.4 18:58:53 10° SSE 19:04:10 47° ENE 19:09:22 10° N
PAYLOAD B 4.2 19:00:35 10° SSE 19:06:12 82° ENE 19:11:47 10° N
Ariane H10-3 2.9 19:05:42 10° WSW 19:08:32 29° S 19:12:14 10° ESE
USA 32 4.0 19:05:29 10° S 19:10:38 62° E 19:15:46 10° N
Cosmos 1833 4.2 19:07:39 10° S 19:13:10 60° ESE 19:18:39 10° NNE
Cosmos 773 Rocket 4.4 19:08:15 10° S 19:13:14 42° E 19:18:08 10° NNE
IRAS Rocket 4.2 19:08:33 10° NNE 19:14:02 71° ESE 19:19:36 10° S
Molniya-1 3.2 19:11:02 10° SSW 19:14:32 88° WNW 19:18:24 10° NNE
CZ-4 R/B 2.7 19:17:25 10° SE 19:20:32 21° ENE 19:21:00 20° ENE
YAOGAN 1 3.7 19:17:11 10° SE 19:20:33 22° ENE 19:22:03 19° NE
GPS 2-14 Rocket1 4.3 19:23:48 10° W 19:27:12 30° SSW 19:30:39 10° SE
CZ-4C R/B 4.0 19:22:23 10° NNE 19:29:09 26° ENE 19:36:03 10° ESE
CZ-4 R/B 4.3 19:28:11 10° SSE 19:32:17 84° E 19:36:24 10° N
Atlas Centaur 2 2.7 19:29:48 10° W 19:33:00 32° SSW 19:36:23 10° SSE
USA 234 4.4 19:33:08 20° NE 19:33:08 20° NE 19:37:41 10° N
Intelsat 5-1 Rocket 3.4 19:32:31 10° S 19:33:08 11° SSE 19:33:28 10° SSE
Okean O Rocket 1.7 19:34:35 10° S 19:39:00 78° WSW 19:43:25 10° NNW
Cosmos 1633 Rocket 4.2 19:35:09 10° NNW 19:39:20 45° W 19:43:33 10° SSW
Gbstr 26 Del rocket 3.9 19:32:53 10° SW 19:39:51 84° NW 19:43:26 24° NNE
Cosmos 372 Rocket 4.3 19:34:57 10° NNW 19:40:08 67° WSW 19:45:20 10° S
USA 229 DEB 4.2 19:34:07 10° NNW 19:41:58 77° WSW 19:49:52 10° SSE
USA 229 4.2 19:34:13 10° NNW 19:42:03 78° WSW 19:49:57 10° SSE
Feng Yun 1-1 Rocket 4.4 19:38:55 10° SSE 19:44:42 60° ENE 19:50:30 10° N
SL-24 R/B - RUBIN 2 3.6 19:45:02 10° N 19:49:13 51° ENE 19:53:36 10° SE
Spot 2 4.5 19:44:58 10° SSE 19:49:47 54° ENE 19:54:45 10° N
Cosmos 2266 Rocket 4.0 19:44:22 10° N 19:50:47 86° E 19:57:10 10° S
Cosmos 1356 Rocket 3.5 19:50:53 51° ENE 19:51:20 54° E 19:55:32 10° SSE
Meteor 1-11 Rocket 3.7 19:46:32 10° N 19:52:13 64° E 19:58:02 10° SSE
GPS 2-12 Rocket1 4.3 19:54:20 10° WNW 19:58:03 25° NNW 19:58:19 25° N
ARIANE 5 R/B 3.8 19:54:29 10° W 19:58:17 79° S 20:01:26 32° E
Meteor 2-4 Rocket 4.4 19:53:45 10° SSE 19:57:55 34° ESE 19:57:55 34° ESE
ARIANE 3 DEB 3.6 19:57:32 10° WSW 19:58:59 29° SSW 19:58:59 29° SSW
SL-27 R/B 4.0 20:00:17 10° SW 20:03:23 33° WNW 20:04:23 27° NW
Cosmos 1933 Rocket 3.5 20:01:52 32° N 20:03:49 83° W 20:08:09 10° S
Sakura Rocket 3.1 20:00:32 10° WNW 20:05:52 76° SSW 20:06:31 61° SSE
CZ-4B R/B 2.9 20:08:09 30° SW 20:08:09 30° SW 20:09:52 10° SSW
Meteor 1-19 Rocket 4.5 20:03:29 10° S 20:09:29 77° W 20:13:23 23° N
Cosmos 1980 Rocket 3.4 20:07:17 10° NW 20:12:32 42° WSW 20:17:46 10° S
Aurora 2 Rocket 4.2 20:08:27 10° NW 20:13:27 37° NNE 20:13:27 37° NNE
Hubble Space Telescope 2.4 20:12:35 10° SSW 20:15:06 25° S 20:15:06 25° S
Ariane 3 Deb 3.2 20:05:26 10° W 20:21:25 89° N 20:21:54 75° E
USA 215 4.5 20:23:08 25° SE 20:23:08 25° SE 20:27:28 10° S
ARIANE 5 DEB (SYLDA) 3.3 20:25:37 10° W 20:28:42 52° WSW 20:28:42 52° WSW
H-2A R/B 4.0 20:26:41 10° S 20:29:14 30° SW 20:29:14 30° SW
Cosmos 1538 Rocket 4.3 20:25:20 10° SSW 20:30:38 65° WNW 20:30:49 64° WNW
OAO 3 Rocket 4.4 20:31:07 10° SW 20:33:58 36° SSW 20:33:58 36° SSW
Ariane H10+ 4.3 20:37:12 10° WSW 20:41:38 30° SW 20:41:38 30° SW
S3M 4.4 20:44:37 10° S 20:49:22 55° SSW 20:49:22 55° SSW
CZ-4 R/B 4.3 20:52:51 10° SW 20:55:15 15° W 20:56:59 12° WNW
CZ-3B R/B 4.0 20:54:28 10° SW 21:02:10 44° S 21:02:10 44° S
CZ-4C R/B 3.8 21:09:33 10° NW 21:17:47 51° WSW 21:26:03 10° S
